Theta_e
322 325 325 324 323 321 321 323 323 321 319 318 318 319 316 317 315 314 318 327 327 326 322 324 324 328 332 332 330 330 327 321 329 329 327 324 320 319 319 318 318 319 320 320
322 325 322 321 322 323 320 323 324 322 319 320 319 320 317 315 316 315 316 319 323 325 325 327 327 327 329 331 331 330 330 325 320 322 321 325 323 319 319 318 318 318 319 319
321 320 319 323 324 324 325 324 324 326 317 318 319 320 318 317 317 318 318 316 317 319 321 325 328 327 325 328 328 330 331 330 324 320 320 318 326 323 320 318 318 317 318 319
319 318 320 323 324 323 326 324 324 321 321 324 319 327 320 320 320 318 318 319 317 318 318 319 324 328 327 324 323 330 330 330 330 325 321 317 316 320 318 316 316 316 317 318
319 318 321 323 323 323 325 325 327 321 321 318 320 326 320 317 321 321 320 320 320 321 321 321 320 326 326 326 326 326 329 329 330 330 326 319 316 317 318 318 317 316 317 318
317 318 320 321 320 322 314 317 319 318 321 326 322 324 322 318 319 318 320 321 322 322 322 323 321 320 325 325 327 327 327 328 327 329 328 325 319 318 318 318 318 318 318 319
319 321 319 321 321 318 319 324 325 327 325 329 318 320 326 318 316 315 317 320 322 323 323 324 322 318 323 325 324 325 327 326 325 326 328 327 325 322 320 319 319 319 319 320
320 323 322 321 321 321 323 326 326 331 327 326 312 319 320 316 320 319 318 320 320 321 323 323 324 320 318 319 322 323 324 325 325 325 324 326 328 327 326 325 324 323 323 324
319 321 319 320 315 318 322 326 318 310 301 313 314 313 312 312 311 312 313 313 315 317 317 320 322 323 323 318 318 320 321 323 325 324 325 325 326 327 328 328 328 327 326 325
316 319 320 318 317 316 320 318 321 318 318 317 315 313 317 314 313 311 310 311 313 314 314 316 318 319 322 321 320 318 318 320 322 322 323 322 322 324 324 326 325 324 324 326
314 316 315 316 320 320 320 322 319 316 315 317 316 315 310 314 311 312 310 314 313 313 313 314 316 319 320 320 319 317 317 320 323 323 323 323 322 321 324 325 324 324 326 327
311 314 318 321 310 311 316 323 321 327 319 313 314 314 311 309 308 309 311 312 312 313 312 312 313 313 314 315 314 314 315 316 318 320 323 324 326 326 327 327 329 330 331 331
310 314 318 315 313 313 319 318 321 314 312 314 315 315 307 305 306 308 309 310 311 311 310 310 310 310 310 310 310 310 311 312 313 314 316 318 319 321 323 325 327 328 328 329
311 312 316 319 320 318 320 319 320 319 321 318 317 315 309 306 305 305 308 310 309 309 310 311 310 311 310 310 310 310 310 309 309 309 309 309 309 309 309 310 313 317 320 322
311 311 312 312 314 316 318 319 320 321 320 320 319 314 309 306 305 306 310 309 309 310 310 311 310 310 310 310 310 310 310 310 309 309 309 309 309 309 309 309 309 309 309 310
310 308 308 307 313 316 318 316 318 316 317 316 316 315 311 308 308 306 308 309 309 310 310 311 310 310 310 310 310 310 309 309 309 309 309 309 309 309 309 309 309 309 309 310
312 307 312 306 309 312 313 315 316 318 317 317 317 316 310 310 306 307 307 309 310 310 311 310 310 310 309 310 310 309 309 309 308 308 308 309 309 309 309 309 309 309 309 309
310 307 305 306 311 317 312 312 315 318 318 317 316 314 310 312 312 311 310 310 312 312 311 310 310 310 309 309 309 309 309 309 308 309 308 308 308 309 309 309 309 309 309 309
312 309 310 312 315 310 307 305 314 315 316 315 316 314 310 311 310 310 311 312 312 312 312 311 310 310 310 309 309 308 308 308 308 308 308 308 308 307 308 308 307 308 308 308
310 311 312 309 313 315 312 305 310 311 315 314 314 314 308 308 310 311 312 311 311 311 311 310 310 310 309 309 308 308 308 308 308 308 308 307 307 307 307 307 307 306 307 307
312 311 314 313 306 306 306 305 312 315 315 313 313 314 312 309 313 313 313 312 311 310 310 310 310 309 309 308 308 307 308 308 308 308 308 307 307 307 307 306 306 306 306 306
312 313 313 304 300 312 303 309 313 311 309 308 309 312 313 313 313 313 312 312 311 311 310 309 308 308 307 307 307 307 308 307 307 307 307 307 307 307 307 307 307 307 306 306
309 312 310 311 311 305 306 306 311 309 310 308 308 309 311 311 311 311 311 309 310 309 309 308 307 307 307 307 307 307 307 306 306 305 305 305 304 304 304 305 305 305 306 306
306 305 307 308 307 305 304 306 309 308 309 309 309 309 309 309 309 309 309 308 308 307 307 307 306 306 306 306 305 305 305 304 304 303 302 302 302 302 302 302 302 302 303 303
303 304 301 301 303 303 304 305 307 309 308 308 309 309 309 309 308 308 308 307 307 306 305 305 305 305 305 305 304 303 303 302 302 301 301 301 300 300 300 300 300 301 301 302
297 297 306 303 297 302 306 306 308 309 308 308 308 308 308 308 308 307 307 306 306 305 304 304 304 303 303 302 302 301 301 300 300 299 299 299 298 298 297 297 297 298 298 298
Wind_Speed
24 11 23 27 18 8 12 8 9 4 6 8 20 17 16 21 13 19 31 38 37 36 27 27 31 32 32 32 34 34 37 37 35 35 33 33 32 29 27 26 24 23 24 22
8 22 20 11 10 12 9 9 10 5 5 10 4 18 12 12 17 25 31 36 37 36 33 31 31 34 35 35 36 37 37 38 38 39 37 36 35 32 30 28 28 27 27 26
22 16 15 16 16 17 11 14 7 4 2 4 1 7 9 11 25 31 32 35 36 37 36 37 36 36 36 39 38 40 39 39 38 39 39 38 39 38 35 35 32 32 30 29
16 9 22 19 19 16 19 8 9 5 7 5 7 5 6 7 14 17 32 36 37 34 34 32 39 38 37 38 38 40 38 38 40 40 40 41 40 42 39 37 35 34 33 32
19 28 26 25 31 16 7 9 7 5 6 2 3 3 6 3 7 19 22 35 41 49 42 36 35 41 39 37 37 37 38 39 40 42 42 41 42 41 41 40 39 37 35 35
9 22 11 17 8 17 9 7 6 4 3 4 6 7 5 6 12 6 17 29 37 43 42 41 38 37 41 39 39 37 36 39 40 41 41 42 41 41 41 41 40 38 37 36
7 14 11 14 12 5 6 9 2 2 3 6 4 8 14 9 6 6 7 11 24 33 38 39 40 40 43 42 39 38 38 38 38 40 41 41 42 41 42 42 41 40 39 39
19 13 19 16 17 14 25 14 6 11 6 4 4 8 7 12 23 20 15 16 12 15 26 31 38 40 38 40 41 40 40 38 38 38 39 39 40 41 41 41 41 42 41 40
17 8 9 21 7 15 10 11 7 7 2 3 5 6 10 9 9 10 17 14 17 18 15 18 28 36 39 41 39 40 40 38 38 34 35 38 38 39 40 39 40 39 39 39
6 9 14 7 9 2 11 9 4 0 6 4 4 5 6 9 11 8 8 17 15 18 19 18 18 24 31 36 37 39 40 39 36 32 33 33 35 36 37 39 40 40 39 39
13 7 5 11 9 14 8 9 6 6 3 6 3 6 8 17 8 12 12 21 21 19 17 16 16 17 22 25 28 31 35 35 36 34 32 33 34 35 37 40 40 41 41 42
8 7 9 18 5 4 3 11 11 8 7 4 3 5 2 7 8 13 16 16 18 21 18 16 16 16 17 19 21 25 27 29 30 32 35 37 38 40 40 41 43 44 45 44
10 5 11 3 0 4 9 8 19 5 4 7 5 5 2 3 5 11 17 16 17 18 17 16 13 13 14 15 15 17 21 25 27 29 31 33 34 36 38 40 41 41 42 42
10 5 13 21 34 15 16 22 25 20 10 7 14 4 4 7 9 9 17 19 21 24 20 13 10 12 13 12 11 10 10 12 14 17 19 22 24 27 29 32 35 37 37 36
6 6 5 3 6 11 17 19 19 21 20 14 18 8 8 11 11 21 24 23 25 24 18 14 11 13 14 12 10 9 9 11 12 14 15 15 17 19 20 21 24 26 28 29
4 6 5 1 10 16 19 18 21 16 15 15 11 11 7 17 13 16 28 28 31 28 21 17 14 14 16 11 10 10 10 12 13 14 15 15 15 15 15 15 16 17 18 20
16 9 11 7 5 10 3 25 27 27 23 28 16 23 8 9 13 25 31 31 34 30 23 20 15 15 15 11 12 12 12 12 13 14 14 14 14 14 15 16 16 17 18 19
9 7 4 3 8 9 7 15 23 29 28 27 26 9 14 18 32 37 34 38 32 28 24 21 19 18 14 12 11 11 12 12 12 12 12 13 14 15 15 16 17 18 19 20
14 5 5 7 10 4 7 7 24 18 26 18 22 16 11 17 15 18 38 34 31 26 24 23 17 17 16 14 14 14 16 16 16 15 16 16 15 15 15 16 18 20 20 20
9 7 6 4 6 13 7 8 18 6 16 25 29 24 9 15 10 14 31 32 29 29 24 22 21 20 17 17 16 17 17 16 15 13 12 12 11 11 11 13 14 16 18 19
10 7 9 9 4 8 7 6 32 14 17 21 38 41 31 15 27 22 31 31 29 24 17 18 20 20 19 18 17 17 17 16 14 12 10 8 7 7 7 8 9 11 13 14
10 13 6 3 2 15 12 25 23 16 7 7 25 38 46 50 35 32 26 27 28 27 27 24 22 22 20 20 19 19 17 14 12 10 9 7 5 5 5 6 7 9 10 12
5 11 12 15 10 2 38 8 25 14 11 6 14 30 37 32 37 33 33 26 25 26 25 23 22 21 21 21 21 19 18 16 13 10 7 5 3 2 2 4 6 7 7 9
2 2 5 5 6 4 19 11 32 11 12 12 12 18 26 33 37 34 34 31 28 26 24 24 24 23 23 23 22 19 18 15 12 10 7 5 3 1 3 6 8 10 11 11
2 5 6 2 1 3 7 28 19 23 14 12 15 16 17 22 26 29 30 31 28 26 24 24 24 24 24 24 22 20 17 15 13 10 7 4 0 3 5 6 6 7 8 9
7 5 3 3 7 4 3 23 25 33 23 18 19 18 18 20 23 26 28 29 29 29 28 28 27 27 26 24 21 18 16 14 10 8 6 3 2 1 3 5 5 6 8 9
Wind_Direction
183 194 206 203 202 186 163 180 223 238 189 170 225 241 242 255 253 235 218 217 220 224 226 226 222 218 218 222 222 223 220 222 221 230 221 223 226 225 225 227 231 232 235 236
161 213 206 179 190 195 174 186 212 256 168 193 208 242 243 243 246 238 221 218 224 230 227 223 220 220 222 223 224 227 228 224 222 227 234 230 231 231 233 235 235 236 237 239
189 215 184 189 195 205 206 204 189 218 123 225 41 277 240 248 241 247 243 237 231 229 230 228 221 219 222 224 224 226 228 230 227 228 233 236 233 235 234 235 236 238 240 242
213 193 184 191 200 191 207 167 182 153 153 233 174 272 258 233 236 229 236 239 233 230 230 233 228 223 221 226 229 230 232 233 234 231 234 236 234 235 238 240 241 242 244 245
198 190 188 195 204 187 221 153 169 147 161 343 225 233 259 216 250 242 232 234 236 240 238 235 231 228 228 230 230 233 235 237 239 236 236 238 240 241 244 245 246 245 248 250
171 194 188 200 174 183 145 99 65 65 124 238 211 210 253 196 225 241 237 237 237 239 237 235 236 233 230 232 233 235 238 241 240 238 238 241 242 243 245 247 249 251 252 252
168 180 178 161 164 152 142 149 136 218 189 228 201 210 242 252 241 219 198 232 238 241 238 233 231 229 227 229 235 237 238 241 242 241 242 243 245 246 250 253 255 255 256 257
178 182 174 185 186 183 188 176 169 187 189 163 135 227 246 228 242 235 236 269 247 237 235 231 231 230 231 234 236 238 239 241 243 244 246 247 248 250 252 254 256 260 262 264
176 209 167 174 163 159 179 200 171 106 52 94 204 271 296 252 256 228 229 227 231 221 221 228 232 232 233 233 234 238 241 244 243 249 251 250 251 252 253 257 260 261 264 265
177 166 189 177 133 248 180 140 131 359 153 225 251 276 230 248 222 221 221 221 219 209 215 222 230 229 228 232 239 243 244 245 248 251 252 254 256 257 259 259 259 261 264 265
149 147 178 163 208 175 158 179 199 124 173 173 176 250 212 224 199 204 210 224 219 208 208 211 213 214 222 229 234 238 242 243 243 245 250 252 254 256 258 258 261 263 266 267
192 150 161 203 350 234 222 192 177 193 211 222 174 263 224 214 193 183 192 201 202 197 198 202 207 210 215 221 230 236 237 239 241 244 247 250 253 255 259 262 265 267 269 272
178 143 153 186 19 343 217 203 199 116 95 201 153 249 301 141 172 191 173 177 178 184 179 161 166 178 183 191 203 216 225 231 236 240 244 247 250 252 254 257 260 263 267 269
116 150 186 198 206 174 188 198 198 194 202 190 220 185 215 187 172 184 185 181 174 163 155 159 167 176 180 186 193 195 203 215 224 234 241 245 249 251 252 252 254 257 260 264
119 136 159 48 152 158 196 200 203 205 212 199 222 191 221 205 193 190 187 185 177 177 181 183 181 184 181 188 196 208 217 221 225 231 237 241 243 247 250 253 256 256 255 255
196 173 115 31 160 159 176 184 198 212 214 237 209 223 203 214 200 187 194 189 189 194 203 199 195 198 196 205 214 223 230 233 237 243 247 250 254 257 259 258 258 260 263 264
182 141 163 194 152 117 160 194 193 207 211 215 208 222 173 195 199 204 201 197 196 202 206 198 208 201 206 228 238 236 234 236 236 239 243 246 249 251 253 254 256 258 259 260
156 115 90 141 117 191 229 195 206 207 213 222 231 200 188 206 209 213 205 194 203 208 203 210 207 204 211 218 218 220 229 242 249 248 246 247 250 252 255 258 262 263 263 264
177 120 103 153 202 285 264 217 197 192 231 226 234 224 202 200 187 221 200 206 204 220 226 218 217 215 220 221 224 240 246 244 239 238 243 247 250 253 257 259 258 261 264 267
109 114 126 146 159 209 238 178 188 156 256 221 220 221 167 150 190 223 205 204 212 225 229 226 219 218 223 230 234 247 241 229 229 232 238 245 250 258 268 274 278 278 278 278
149 149 174 175 194 270 231 169 138 152 238 224 205 212 194 197 209 192 192 206 215 225 222 222 222 224 229 235 243 232 223 219 218 219 222 228 242 251 257 265 271 275 279 282
164 160 175 127 125 250 164 154 168 211 133 147 210 200 200 212 211 212 215 229 228 228 228 227 222 221 223 223 217 209 205 202 197 197 199 207 222 246 263 277 280 283 285 283
156 190 172 192 204 175 174 168 196 172 174 197 206 206 201 207 211 213 209 210 214 208 207 207 213 216 214 206 199 196 189 187 184 181 186 186 197 227 289 309 313 313 312 312
305 142 154 118 210 182 204 210 199 209 171 161 172 175 191 205 206 202 202 200 197 196 200 203 201 201 197 192 189 185 183 177 174 174 176 184 191 277 307 324 322 323 324 318
179 126 147 263 328 59 209 211 204 208 204 181 165 171 185 203 203 206 194 194 197 200 197 196 194 191 188 184 182 178 176 172 173 171 170 170 359 328 320 315 318 330 333 329
1 357 204 193 351 328 209 206 202 204 206 182 171 161 169 183 188 194 193 193 194 192 190 188 187 187 183 181 179 178 175 172 171 173 171 180 215 261 324 326 332 337 336 339